EN

Hourly Weather Abu Simbel

Today, 30 November, Monday

Time Temperature Precipitation Wind Pressure Humidity
00:00 +17°C° 0 mm 4 mps 745 mmHg 38%
01:00 +17°C° 0 mm 4 mps 745 mmHg 39%
02:00 +16°C° 0 mm 3 mps 744 mmHg 40%
03:00 +16°C° 0 mm 3 mps 744 mmHg 41%
04:00 +16°C° 0 mm 3 mps 745 mmHg 41%
05:00 +14°C° 0 mm 3 mps 745 mmHg 42%
06:00 +16°C° 0 mm 3 mps 745 mmHg 40%
07:00 +17°C° 0 mm 3 mps 745 mmHg 38%
08:00 +18°C° 0 mm 3 mps 746 mmHg 36%
09:00 +20°C° 0 mm 3 mps 746 mmHg 33%
10:00 +23°C° 0 mm 2 mps 746 mmHg 30%
11:00 +24°C° 0 mm 2 mps 746 mmHg 27%
12:00 +25°C° 0 mm 2 mps 745 mmHg 24%
13:00 +26°C° 0 mm 2 mps 744 mmHg 22%
14:00 +26°C° 0 mm 2 mps 743 mmHg 20%
15:00 +25°C° 0 mm 2 mps 744 mmHg 23%
16:00 +24°C° 0 mm 2 mps 744 mmHg 25%
17:00 +23°C° 0 mm 2 mps 744 mmHg 28%
18:00 +21°C° 0 mm 2 mps 744 mmHg 27%
19:00 +21°C° 0 mm 3 mps 744 mmHg 27%
20:00 +20°C° 0 mm 3 mps 744 mmHg 26%
21:00 +20°C° 0 mm 3 mps 744 mmHg 28%
22:00 +19°C° 0 mm 3 mps 744 mmHg 29%
23:00 +18°C° 0 mm 3 mps 745 mmHg 30%

Tomorrow, 1 December, Tuesday

Time Temperature Precipitation Wind Pressure Humidity
00:00 +18°C° 0 mm 3 mps 744 mmHg 32%
01:00 +17°C° 0 mm 2 mps 744 mmHg 34%
02:00 +16°C° 0 mm 2 mps 743 mmHg 36%
03:00 +16°C° 0 mm 2 mps 743 mmHg 37%
04:00 +15°C° 0 mm 1 mps 743 mmHg 38%
05:00 +15°C° 0 mm 1 mps 743 mmHg 39%
06:00 +17°C° 0 mm 2 mps 744 mmHg 35%
07:00 +18°C° 0 mm 2 mps 744 mmHg 32%
08:00 +20°C° 0 mm 2 mps 744 mmHg 28%
09:00 +21°C° 0 mm 2 mps 744 mmHg 26%
10:00 +24°C° 0 mm 2 mps 744 mmHg 24%
11:00 +26°C° 0 mm 3 mps 744 mmHg 22%
12:00 +26°C° 0 mm 3 mps 743 mmHg 22%
13:00 +27°C° 0 mm 3 mps 743 mmHg 22%
14:00 +28°C° 0 mm 3 mps 742 mmHg 22%
15:00 +27°C° 0 mm 4 mps 742 mmHg 23%
16:00 +26°C° 0 mm 4 mps 742 mmHg 25%
17:00 +25°C° 0 mm 4 mps 743 mmHg 26%
18:00 +23°C° 0 mm 4 mps 743 mmHg 26%
19:00 +21°C° 0 mm 4 mps 744 mmHg 26%
20:00 +20°C° 0 mm 5 mps 744 mmHg 27%
21:00 +20°C° 0 mm 5 mps 744 mmHg 28%
22:00 +19°C° 0 mm 4 mps 744 mmHg 28%
23:00 +18°C° 0 mm 4 mps 745 mmHg 29%

Day after tomorrow, 2 December, Wednesday

Time Temperature Precipitation Wind Pressure Humidity
00:00 +18°C° 0 mm 4 mps 745 mmHg 30%
01:00 +17°C° 0 mm 4 mps 744 mmHg 30%
02:00 +17°C° 0 mm 3 mps 744 mmHg 30%
03:00 +16°C° 0 mm 3 mps 745 mmHg 32%
04:00 +16°C° 0 mm 3 mps 745 mmHg 34%
05:00 +14°C° 0 mm 3 mps 745 mmHg 35%
06:00 +16°C° 0 mm 3 mps 745 mmHg 34%
07:00 +17°C° 0 mm 3 mps 745 mmHg 33%
08:00 +18°C° 0 mm 2 mps 746 mmHg 32%
09:00 +19°C° 0 mm 3 mps 746 mmHg 29%
10:00 +21°C° 0 mm 3 mps 746 mmHg 27%
11:00 +22°C° 0 mm 3 mps 746 mmHg 24%
12:00 +24°C° 0 mm 3 mps 745 mmHg 23%
13:00 +24°C° 0 mm 2 mps 744 mmHg 21%
14:00 +25°C° 0 mm 2 mps 744 mmHg 20%
15:00 +24°C° 0 mm 2 mps 744 mmHg 23%
16:00 +22°C° 0 mm 1 mps 743 mmHg 25%
17:00 +21°C° 0 mm 1 mps 743 mmHg 27%
18:00 +19°C° 0 mm 2 mps 744 mmHg 28%
19:00 +19°C° 0 mm 2 mps 744 mmHg 29%
20:00 +18°C° 0 mm 3 mps 745 mmHg 30%
21:00 +18°C° 0 mm 3 mps 745 mmHg 32%
22:00 +17°C° 0 mm 3 mps 745 mmHg 34%
23:00 +17°C° 0 mm 3 mps 745 mmHg 37%

3 December, Thursday

Time Temperature Precipitation Wind Pressure Humidity
00:00 +17°C° 0 mm 3 mps 745 mmHg 39%
01:00 +16°C° 0 mm 3 mps 745 mmHg 40%
02:00 +16°C° 0 mm 3 mps 745 mmHg 42%
03:00 +16°C° 0 mm 3 mps 745 mmHg 45%
04:00 +14°C° 0 mm 3 mps 745 mmHg 47%
05:00 +14°C° 0 mm 3 mps 745 mmHg 50%
06:00 +16°C° 0 mm 3 mps 745 mmHg 46%
07:00 +17°C° 0 mm 3 mps 746 mmHg 42%
08:00 +18°C° 0 mm 3 mps 746 mmHg 38%
09:00 +20°C° 0 mm 3 mps 746 mmHg 35%
10:00 +21°C° 0 mm 3 mps 746 mmHg 32%
11:00 +24°C° 0 mm 3 mps 746 mmHg 29%
12:00 +24°C° 0 mm 2 mps 745 mmHg 27%
13:00 +25°C° 0 mm 2 mps 744 mmHg 25%
14:00 +26°C° 0 mm 2 mps 743 mmHg 23%
15:00 +24°C° 0 mm 2 mps 744 mmHg 26%
16:00 +23°C° 0 mm 1 mps 744 mmHg 29%
17:00 +22°C° 0 mm 1 mps 744 mmHg 32%
18:00 +20°C° 0 mm 2 mps 744 mmHg 31%
19:00 +20°C° 0 mm 3 mps 744 mmHg 31%
20:00 +19°C° 0 mm 3 mps 744 mmHg 30%
21:00 +19°C° 0 mm 3 mps 745 mmHg 32%
22:00 +18°C° 0 mm 4 mps 745 mmHg 33%
23:00 +18°C° 0 mm 4 mps 745 mmHg 34%

4 December, Friday

Time Temperature Precipitation Wind Pressure Humidity
00:00 +17°C° 0 mm 4 mps 745 mmHg 37%
01:00 +17°C° 0 mm 4 mps 744 mmHg 40%
02:00 +15°C° 0 mm 4 mps 744 mmHg 43%
03:00 +16°C° 0 mm 3 mps 744 mmHg 44%
04:00 +16°C° 0 mm 3 mps 744 mmHg 46%
05:00 +14°C° 0 mm 3 mps 744 mmHg 48%
06:00 +16°C° 0 mm 3 mps 745 mmHg 45%
07:00 +17°C° 0 mm 3 mps 745 mmHg 43%
08:00 +18°C° 0 mm 3 mps 746 mmHg 40%
09:00 +20°C° 0 mm 3 mps 746 mmHg 36%
10:00 +21°C° 0 mm 3 mps 746 mmHg 31%
11:00 +24°C° 0 mm 3 mps 746 mmHg 27%
12:00 +25°C° 0 mm 3 mps 745 mmHg 25%
13:00 +25°C° 0 mm 3 mps 745 mmHg 23%
14:00 +26°C° 0 mm 3 mps 744 mmHg 21%
15:00 +25°C° 0 mm 2 mps 744 mmHg 24%
16:00 +23°C° 0 mm 2 mps 744 mmHg 27%
17:00 +22°C° 0 mm 1 mps 744 mmHg 30%
18:00 +20°C° 0 mm 2 mps 744 mmHg 31%
19:00 +20°C° 0 mm 2 mps 745 mmHg 32%
20:00 +19°C° 0 mm 3 mps 745 mmHg 33%
21:00 +19°C° 0 mm 3 mps 745 mmHg 35%
22:00 +18°C° 0 mm 3 mps 745 mmHg 36%
23:00 +18°C° 0 mm 4 mps 745 mmHg 38%

5 December, Saturday

Time Temperature Precipitation Wind Pressure Humidity
00:00 +18°C° 0 mm 4 mps 745 mmHg 39%
01:00 +17°C° 0 mm 4 mps 745 mmHg 40%
02:00 +17°C° 0 mm 4 mps 745 mmHg 41%
03:00 +17°C° 0 mm 4 mps 745 mmHg 42%
04:00 +17°C° 0 mm 4 mps 745 mmHg 43%
05:00 +16°C° 0 mm 3 mps 745 mmHg 44%
06:00 +17°C° 0 mm 4 mps 745 mmHg 42%
07:00 +18°C° 0 mm 4 mps 746 mmHg 40%
08:00 +19°C° 0 mm 4 mps 746 mmHg 38%
09:00 +20°C° 0 mm 4 mps 746 mmHg 35%
10:00 +22°C° 0 mm 4 mps 746 mmHg 31%
11:00 +23°C° 0 mm 4 mps 746 mmHg 28%
12:00 +25°C° 0 mm 4 mps 745 mmHg 26%
13:00 +26°C° 0 mm 3 mps 744 mmHg 25%
14:00 +26°C° 0 mm 3 mps 744 mmHg 24%
15:00 +25°C° 0 mm 2 mps 744 mmHg 27%
16:00 +24°C° 0 mm 2 mps 744 mmHg 30%
17:00 +22°C° 0 mm 1 mps 743 mmHg 33%
18:00 +21°C° 0 mm 2 mps 744 mmHg 33%
19:00 +20°C° 0 mm 2 mps 744 mmHg 33%
20:00 +20°C° 0 mm 3 mps 745 mmHg 33%
21:00 +19°C° 0 mm 3 mps 745 mmHg 34%
22:00 +19°C° 0 mm 3 mps 745 mmHg 35%
23:00 +18°C° 0 mm 3 mps 745 mmHg 37%
Show more